Year,Month,Day,Hour,Minute,Value (Times are PST for temperature in C)
2015,08,19,00,00,19.80
2015,08,19,00,01,19.80
2015,08,19,00,02,19.80
2015,08,19,00,03,19.80
2015,08,19,00,04,19.80
2015,08,19,00,05,19.70
2015,08,19,00,06,19.70
2015,08,19,00,07,19.70
2015,08,19,00,08,19.70
2015,08,19,00,09,19.70
2015,08,19,00,10,19.70
2015,08,19,00,11,19.70
2015,08,19,00,12,19.70
2015,08,19,00,13,19.60
2015,08,19,00,14,19.60
2015,08,19,00,15,19.60
2015,08,19,00,16,19.60
2015,08,19,00,17,19.60
2015,08,19,00,18,19.60
2015,08,19,00,19,19.50
2015,08,19,00,20,19.60
2015,08,19,00,21,19.60
2015,08,19,00,22,19.60
2015,08,19,00,23,19.60
2015,08,19,00,24,19.60
2015,08,19,00,25,19.60
2015,08,19,00,26,19.50
2015,08,19,00,27,19.50
2015,08,19,00,28,19.50
2015,08,19,00,29,19.40
2015,08,19,00,30,19.40
2015,08,19,00,31,19.40
2015,08,19,00,32,19.40
2015,08,19,00,33,19.40
2015,08,19,00,34,19.30
2015,08,19,00,35,19.30
2015,08,19,00,36,19.20
2015,08,19,00,37,19.20
2015,08,19,00,38,19.10
2015,08,19,00,39,19.10
2015,08,19,00,40,19.00
2015,08,19,00,41,18.90
2015,08,19,00,42,18.90
2015,08,19,00,43,18.80
2015,08,19,00,44,18.80
2015,08,19,00,45,18.70
2015,08,19,00,46,18.70
2015,08,19,00,47,18.60
2015,08,19,00,48,18.60
2015,08,19,00,49,18.50
2015,08,19,00,50,18.50
2015,08,19,00,51,18.40
2015,08,19,00,52,18.40
2015,08,19,00,53,18.40
2015,08,19,00,54,18.30
2015,08,19,00,55,18.30
2015,08,19,00,56,18.30
2015,08,19,00,57,18.30
2015,08,19,00,58,18.20
2015,08,19,00,59,18.20
2015,08,19,01,00,18.20
2015,08,19,01,01,18.20
2015,08,19,01,02,18.20
2015,08,19,01,03,18.10
2015,08,19,01,04,18.10
2015,08,19,01,05,18.10
2015,08,19,01,06,18.10
2015,08,19,01,07,18.00
2015,08,19,01,08,18.00
2015,08,19,01,09,17.90
2015,08,19,01,10,17.90
2015,08,19,01,11,17.80
2015,08,19,01,12,17.80
2015,08,19,01,13,17.80
2015,08,19,01,14,17.70
2015,08,19,01,15,17.70
2015,08,19,01,16,17.70
2015,08,19,01,17,17.60
2015,08,19,01,18,17.60
2015,08,19,01,19,17.60
2015,08,19,01,20,17.50
2015,08,19,01,21,17.50
2015,08,19,01,22,17.40
2015,08,19,01,23,17.40
2015,08,19,01,24,17.40
2015,08,19,01,25,17.40
2015,08,19,01,26,17.40
2015,08,19,01,27,17.30
2015,08,19,01,28,17.30
2015,08,19,01,29,17.30
2015,08,19,01,30,17.30
2015,08,19,01,31,17.30
2015,08,19,01,32,17.30
2015,08,19,01,33,17.30
2015,08,19,01,34,17.20
2015,08,19,01,35,17.20
2015,08,19,01,36,17.20
2015,08,19,01,37,17.20
2015,08,19,01,38,17.20
2015,08,19,01,39,17.10
2015,08,19,01,40,17.10
2015,08,19,01,41,17.10
2015,08,19,01,42,17.10
2015,08,19,01,43,17.00
2015,08,19,01,44,17.00
2015,08,19,01,45,17.00
2015,08,19,01,46,16.90
2015,08,19,01,47,16.90
2015,08,19,01,48,16.90
2015,08,19,01,49,16.90
2015,08,19,01,50,16.90
2015,08,19,01,51,16.90
2015,08,19,01,52,16.90
2015,08,19,01,53,16.80
2015,08,19,01,54,16.80
2015,08,19,01,55,16.80
2015,08,19,01,56,16.80
2015,08,19,01,57,16.80
2015,08,19,01,58,16.70
2015,08,19,01,59,16.70
2015,08,19,02,00,16.70
2015,08,19,02,01,16.70
2015,08,19,02,02,16.70
2015,08,19,02,03,16.60
2015,08,19,02,04,16.60
2015,08,19,02,05,16.60
2015,08,19,02,06,16.60
2015,08,19,02,07,16.50
2015,08,19,02,08,16.50
2015,08,19,02,09,16.50
2015,08,19,02,10,16.50
2015,08,19,02,11,16.40
2015,08,19,02,12,16.50
2015,08,19,02,13,16.50
2015,08,19,02,14,16.50
2015,08,19,02,15,16.50
2015,08,19,02,16,16.50
2015,08,19,02,17,16.50
2015,08,19,02,18,16.50
2015,08,19,02,19,16.50
2015,08,19,02,20,16.50
2015,08,19,02,21,16.50
2015,08,19,02,22,16.50
2015,08,19,02,23,16.50
2015,08,19,02,24,16.40
2015,08,19,02,25,16.40
2015,08,19,02,26,16.40
2015,08,19,02,27,16.40
2015,08,19,02,28,16.40
2015,08,19,02,29,16.40
2015,08,19,02,30,16.40
2015,08,19,02,31,16.30
2015,08,19,02,32,16.30
2015,08,19,02,33,16.30
2015,08,19,02,34,16.30
2015,08,19,02,35,16.30
2015,08,19,02,36,16.30
2015,08,19,02,37,16.30
2015,08,19,02,38,16.30
2015,08,19,02,39,16.30
2015,08,19,02,40,16.30
2015,08,19,02,41,16.20
2015,08,19,02,42,16.20
2015,08,19,02,43,16.20
2015,08,19,02,44,16.20
2015,08,19,02,45,16.20
2015,08,19,02,46,16.10
2015,08,19,02,47,16.10
2015,08,19,02,48,16.10
2015,08,19,02,49,16.10
2015,08,19,02,50,16.10
2015,08,19,02,51,16.10
2015,08,19,02,52,16.10
2015,08,19,02,53,16.10
2015,08,19,02,54,16.10
2015,08,19,02,55,16.10
2015,08,19,02,56,16.10
2015,08,19,02,57,16.10
2015,08,19,02,58,16.10
2015,08,19,02,59,16.10
2015,08,19,03,00,16.00
2015,08,19,03,01,16.00
2015,08,19,03,02,16.00
2015,08,19,03,03,15.90
2015,08,19,03,04,15.90
2015,08,19,03,05,15.90
2015,08,19,03,06,15.90
2015,08,19,03,07,15.90
2015,08,19,03,08,15.90
2015,08,19,03,09,15.80
2015,08,19,03,10,15.80
2015,08,19,03,11,15.80
2015,08,19,03,12,15.80
2015,08,19,03,13,15.80
2015,08,19,03,14,15.80
2015,08,19,03,15,15.80
2015,08,19,03,16,15.80
2015,08,19,03,17,15.80
2015,08,19,03,18,15.70
2015,08,19,03,19,15.70
2015,08,19,03,20,15.70
2015,08,19,03,21,15.70
2015,08,19,03,22,15.70
2015,08,19,03,23,15.70
2015,08,19,03,24,15.60
2015,08,19,03,25,15.60
2015,08,19,03,26,15.60
2015,08,19,03,27,15.60
2015,08,19,03,28,15.50
2015,08,19,03,29,15.50
2015,08,19,03,30,15.50
2015,08,19,03,31,15.40
2015,08,19,03,32,15.40
2015,08,19,03,33,15.40
2015,08,19,03,34,15.40
2015,08,19,03,35,15.30
2015,08,19,03,36,15.30
2015,08,19,03,37,15.30
2015,08,19,03,38,15.30
2015,08,19,03,39,15.30
2015,08,19,03,40,15.20
2015,08,19,03,41,15.20
2015,08,19,03,42,15.20
2015,08,19,03,43,15.20
2015,08,19,03,44,15.20
2015,08,19,03,45,15.20
2015,08,19,03,46,15.20
2015,08,19,03,47,15.20
2015,08,19,03,48,15.20
2015,08,19,03,49,15.10
2015,08,19,03,50,15.10
2015,08,19,03,51,15.10
2015,08,19,03,52,15.10
2015,08,19,03,53,15.10
2015,08,19,03,54,15.10
2015,08,19,03,55,15.00
2015,08,19,03,56,15.00
2015,08,19,03,57,15.00
2015,08,19,03,58,15.00
2015,08,19,03,59,15.00
2015,08,19,04,00,15.00
2015,08,19,04,01,15.00
2015,08,19,04,02,15.00
2015,08,19,04,03,15.00
2015,08,19,04,04,14.90
2015,08,19,04,05,14.90
2015,08,19,04,06,14.90
2015,08,19,04,07,14.90
2015,08,19,04,08,14.90
2015,08,19,04,09,14.90
2015,08,19,04,10,14.90
2015,08,19,04,11,14.90
2015,08,19,04,12,14.90
2015,08,19,04,13,14.90
2015,08,19,04,14,14.80
2015,08,19,04,15,14.80
2015,08,19,04,16,14.80
2015,08,19,04,17,14.80
2015,08,19,04,18,14.70
2015,08,19,04,19,14.70
2015,08,19,04,20,14.70
2015,08,19,04,21,14.70
2015,08,19,04,22,14.60
2015,08,19,04,23,14.60
2015,08,19,04,24,14.60
2015,08,19,04,25,14.60
2015,08,19,04,26,14.50
2015,08,19,04,27,14.50
2015,08,19,04,28,14.50
2015,08,19,04,29,14.50
2015,08,19,04,30,14.40
2015,08,19,04,31,14.40
2015,08,19,04,32,14.40
2015,08,19,04,33,14.40
2015,08,19,04,34,14.40
2015,08,19,04,35,14.40
2015,08,19,04,36,14.40
2015,08,19,04,37,14.40
2015,08,19,04,38,14.40
2015,08,19,04,39,14.30
2015,08,19,04,40,14.30
2015,08,19,04,41,14.30
2015,08,19,04,42,14.30
2015,08,19,04,43,14.30
2015,08,19,04,44,14.30
2015,08,19,04,45,14.30
2015,08,19,04,46,14.30
2015,08,19,04,47,14.30
2015,08,19,04,48,14.30
2015,08,19,04,49,14.30
2015,08,19,04,50,14.30
2015,08,19,04,51,14.30
2015,08,19,04,52,14.30
2015,08,19,04,53,14.30
2015,08,19,04,54,14.30
2015,08,19,04,55,14.30
2015,08,19,04,56,14.30
2015,08,19,04,57,14.30
2015,08,19,04,58,14.30
2015,08,19,04,59,14.20
2015,08,19,05,00,14.20
2015,08,19,05,01,14.20
2015,08,19,05,02,14.20
2015,08,19,05,03,14.20
2015,08,19,05,04,14.20
2015,08,19,05,05,14.20
2015,08,19,05,06,14.20
2015,08,19,05,07,14.20
2015,08,19,05,08,14.10
2015,08,19,05,09,14.10
2015,08,19,05,10,14.10
2015,08,19,05,11,14.10
2015,08,19,05,12,14.10
2015,08,19,05,13,14.10
2015,08,19,05,14,14.10
2015,08,19,05,15,14.10
2015,08,19,05,16,14.00
2015,08,19,05,17,14.00
2015,08,19,05,18,14.00
2015,08,19,05,19,14.00
2015,08,19,05,20,13.90
2015,08,19,05,21,13.90
2015,08,19,05,22,13.90
2015,08,19,05,23,13.90
2015,08,19,05,24,13.90
2015,08,19,05,25,13.80
2015,08,19,05,26,13.80
2015,08,19,05,27,13.80
2015,08,19,05,28,13.80
2015,08,19,05,29,13.80
2015,08,19,05,30,13.80
2015,08,19,05,31,13.80
2015,08,19,05,32,13.80
2015,08,19,05,33,13.80
2015,08,19,05,34,13.80
2015,08,19,05,35,13.70
2015,08,19,05,36,13.70
2015,08,19,05,37,13.70
2015,08,19,05,38,13.70
2015,08,19,05,39,13.70
2015,08,19,05,40,13.70
2015,08,19,05,41,13.70
2015,08,19,05,42,13.70
2015,08,19,05,43,13.70
2015,08,19,05,44,13.70
2015,08,19,05,45,13.70
2015,08,19,05,46,13.70
2015,08,19,05,47,13.70
2015,08,19,05,48,13.70
2015,08,19,05,49,13.70
2015,08,19,05,50,13.70
2015,08,19,05,51,13.70
2015,08,19,05,52,13.70
2015,08,19,05,53,13.60
2015,08,19,05,54,13.60
2015,08,19,05,55,13.60
2015,08,19,05,56,13.60
2015,08,19,05,57,13.60
2015,08,19,05,58,13.50
2015,08,19,05,59,13.50
2015,08,19,06,00,13.50
2015,08,19,06,01,13.40
2015,08,19,06,02,13.40
2015,08,19,06,03,13.40
2015,08,19,06,04,13.40
2015,08,19,06,05,13.40
2015,08,19,06,06,13.40
2015,08,19,06,07,13.30
2015,08,19,06,08,13.30
2015,08,19,06,09,13.30
2015,08,19,06,10,13.30
2015,08,19,06,11,13.30
2015,08,19,06,12,13.30
2015,08,19,06,13,13.30
2015,08,19,06,14,13.30
2015,08,19,06,15,13.30
2015,08,19,06,16,13.20
2015,08,19,06,17,13.20
2015,08,19,06,18,13.20
2015,08,19,06,19,13.20
2015,08,19,06,20,13.20
2015,08,19,06,21,13.20
2015,08,19,06,22,13.10
2015,08,19,06,23,13.10
2015,08,19,06,24,13.10
2015,08,19,06,25,13.10
2015,08,19,06,26,13.10
2015,08,19,06,27,13.10
2015,08,19,06,28,13.10
2015,08,19,06,29,13.10
2015,08,19,06,30,13.10
2015,08,19,06,31,13.10
2015,08,19,06,32,13.10
2015,08,19,06,33,13.10
2015,08,19,06,34,13.10
2015,08,19,06,35,13.10
2015,08,19,06,36,13.10
2015,08,19,06,37,13.10
2015,08,19,06,38,13.10
2015,08,19,06,39,13.10
2015,08,19,06,40,13.00
2015,08,19,06,41,13.00
2015,08,19,06,42,12.90
2015,08,19,06,43,12.90
2015,08,19,06,44,12.90
2015,08,19,06,45,12.90
2015,08,19,06,46,12.90
2015,08,19,06,47,12.80
2015,08,19,06,48,12.80
2015,08,19,06,49,12.80
2015,08,19,06,50,12.80
2015,08,19,06,51,12.80
2015,08,19,06,52,12.80
2015,08,19,06,53,12.80
2015,08,19,06,54,12.80
2015,08,19,06,55,12.80
2015,08,19,06,56,12.80
2015,08,19,06,57,12.80
2015,08,19,06,58,12.80
2015,08,19,06,59,12.80
2015,08,19,07,00,12.80
2015,08,19,07,01,12.80
2015,08,19,07,02,12.90
2015,08,19,07,03,12.90
2015,08,19,07,04,12.90
2015,08,19,07,05,12.90
2015,08,19,07,06,12.90
2015,08,19,07,07,12.90
2015,08,19,07,08,13.00
2015,08,19,07,09,13.00
2015,08,19,07,10,13.00
2015,08,19,07,11,13.00
2015,08,19,07,12,13.10
2015,08,19,07,13,13.20
2015,08,19,07,14,13.20
2015,08,19,07,15,13.30
2015,08,19,07,16,13.30
2015,08,19,07,17,13.40
2015,08,19,07,18,13.40
2015,08,19,07,19,13.50
2015,08,19,07,20,13.50
2015,08,19,07,21,13.60
2015,08,19,07,22,13.60
2015,08,19,07,23,13.60
2015,08,19,07,24,13.70
2015,08,19,07,25,13.70
2015,08,19,07,26,13.70
2015,08,19,07,27,13.70
2015,08,19,07,28,13.80
2015,08,19,07,29,13.80
2015,08,19,07,30,13.80
2015,08,19,07,31,13.80
2015,08,19,07,32,13.80
2015,08,19,07,33,13.90
2015,08,19,07,34,14.10
2015,08,19,07,35,14.20
2015,08,19,07,36,14.20
2015,08,19,07,37,14.30
2015,08,19,07,38,14.30
2015,08,19,07,39,14.40
2015,08,19,07,40,14.50
2015,08,19,07,41,14.60
2015,08,19,07,42,14.70
2015,08,19,07,43,14.80
2015,08,19,07,44,14.80
2015,08,19,07,45,14.90
2015,08,19,07,46,15.00
2015,08,19,07,47,15.00
2015,08,19,07,48,15.10
2015,08,19,07,49,15.20
2015,08,19,07,50,15.20
2015,08,19,07,51,15.20
2015,08,19,07,52,15.30
2015,08,19,07,53,15.30
2015,08,19,07,54,15.30
2015,08,19,07,55,15.40
2015,08,19,07,56,15.40
2015,08,19,07,57,15.40
2015,08,19,07,58,15.50
2015,08,19,07,59,15.50
2015,08,19,08,00,15.60
2015,08,19,08,01,15.60
2015,08,19,08,02,15.60
2015,08,19,08,03,15.70
2015,08,19,08,04,15.70
2015,08,19,08,05,15.80
2015,08,19,08,06,15.80
2015,08,19,08,07,15.90
2015,08,19,08,08,16.00
2015,08,19,08,09,16.10
2015,08,19,08,10,16.30
2015,08,19,08,11,16.40
2015,08,19,08,12,16.60
2015,08,19,08,13,16.70
2015,08,19,08,14,16.80
2015,08,19,08,15,17.00
2015,08,19,08,16,17.10
2015,08,19,08,17,17.10
2015,08,19,08,18,17.20
2015,08,19,08,19,17.20
2015,08,19,08,20,17.20
2015,08,19,08,21,17.20
2015,08,19,08,22,17.30
2015,08,19,08,23,17.30
2015,08,19,08,24,17.40
2015,08,19,08,25,17.40
2015,08,19,08,26,17.50
2015,08,19,08,27,17.60
2015,08,19,08,28,17.60
2015,08,19,08,29,17.60
2015,08,19,08,30,17.60
2015,08,19,08,31,17.70
2015,08,19,08,32,17.70
2015,08,19,08,33,17.70
2015,08,19,08,34,17.80
2015,08,19,08,35,17.80
2015,08,19,08,36,17.80
2015,08,19,08,37,17.90
2015,08,19,08,38,17.90
2015,08,19,08,39,17.90
2015,08,19,08,40,18.00
2015,08,19,08,41,18.00
2015,08,19,08,42,18.10
2015,08,19,08,43,18.10
2015,08,19,08,44,18.20
2015,08,19,08,45,18.20
2015,08,19,08,46,18.20
2015,08,19,08,47,18.30
2015,08,19,08,48,18.30
2015,08,19,08,49,18.30
2015,08,19,08,50,18.40
2015,08,19,08,51,18.40
2015,08,19,08,52,18.50
2015,08,19,08,53,18.60
2015,08,19,08,54,18.60
2015,08,19,08,55,18.70
2015,08,19,08,56,18.80
2015,08,19,08,57,18.90
2015,08,19,08,58,19.00
2015,08,19,08,59,19.10
2015,08,19,09,00,19.20
2015,08,19,09,01,19.40
2015,08,19,09,02,19.50
2015,08,19,09,03,19.60
2015,08,19,09,04,19.70
2015,08,19,09,05,19.80
2015,08,19,09,06,19.90
2015,08,19,09,07,20.00
2015,08,19,09,08,20.10
2015,08,19,09,09,20.10
2015,08,19,09,10,20.10
2015,08,19,09,11,20.10
2015,08,19,09,12,20.10
2015,08,19,09,13,20.20
2015,08,19,09,14,20.20
2015,08,19,09,15,20.20
2015,08,19,09,16,20.20
2015,08,19,09,17,20.20
2015,08,19,09,18,20.20
2015,08,19,09,19,20.20
2015,08,19,09,20,20.30
2015,08,19,09,21,20.30
2015,08,19,09,22,20.40
2015,08,19,09,23,20.50
2015,08,19,09,24,20.60
2015,08,19,09,25,20.70
2015,08,19,09,26,20.80
2015,08,19,09,27,21.00
2015,08,19,09,28,21.10
2015,08,19,09,29,21.20
2015,08,19,09,30,21.20
2015,08,19,09,31,21.30
2015,08,19,09,32,21.30
2015,08,19,09,33,21.30
2015,08,19,09,34,21.40
2015,08,19,09,35,21.40
2015,08,19,09,36,21.50
2015,08,19,09,37,21.50
2015,08,19,09,38,21.50
2015,08,19,09,39,21.50
2015,08,19,09,40,21.50
2015,08,19,09,41,21.60
2015,08,19,09,42,21.60
2015,08,19,09,43,21.60
2015,08,19,09,44,21.60
2015,08,19,09,45,21.60
2015,08,19,09,46,21.60
2015,08,19,09,47,21.70
2015,08,19,09,48,21.80
2015,08,19,09,49,22.00
2015,08,19,09,50,22.10
2015,08,19,09,51,22.20
2015,08,19,09,52,22.30
2015,08,19,09,53,22.30
2015,08,19,09,54,22.30
2015,08,19,09,55,22.40
2015,08,19,09,56,22.50
2015,08,19,09,57,22.60
2015,08,19,09,58,22.70
2015,08,19,09,59,22.80
2015,08,19,10,00,22.80
2015,08,19,10,01,22.90
2015,08,19,10,02,23.00
2015,08,19,10,03,23.10
2015,08,19,10,04,23.10
2015,08,19,10,05,23.10
2015,08,19,10,06,23.20
2015,08,19,10,07,23.20
2015,08,19,10,08,23.30
2015,08,19,10,09,23.30
2015,08,19,10,10,23.30
2015,08,19,10,11,23.30
2015,08,19,10,12,23.40
2015,08,19,10,13,23.40
2015,08,19,10,14,23.50
2015,08,19,10,15,23.60
2015,08,19,10,16,23.70
2015,08,19,10,17,23.80
2015,08,19,10,18,23.90
2015,08,19,10,19,24.00
2015,08,19,10,20,24.20
2015,08,19,10,21,24.30
2015,08,19,10,22,24.40
2015,08,19,10,23,24.50
2015,08,19,10,24,24.60
2015,08,19,10,25,24.70
2015,08,19,10,26,24.90
2015,08,19,10,27,25.00
2015,08,19,10,28,25.10
2015,08,19,10,29,25.10
2015,08,19,10,30,25.20
2015,08,19,10,31,25.20
2015,08,19,10,32,25.20
2015,08,19,10,33,25.20
2015,08,19,10,34,25.20
2015,08,19,10,35,25.20
2015,08,19,10,36,25.20
2015,08,19,10,37,25.30
2015,08,19,10,38,25.30
2015,08,19,10,39,25.40
2015,08,19,10,40,25.40
2015,08,19,10,41,25.40
2015,08,19,10,42,25.40
2015,08,19,10,43,25.40
2015,08,19,10,44,25.40
2015,08,19,10,45,25.40
2015,08,19,10,46,25.40
2015,08,19,10,47,25.40
2015,08,19,10,48,25.40
2015,08,19,10,49,25.50
2015,08,19,10,50,25.50
2015,08,19,10,51,25.60
2015,08,19,10,52,25.60
2015,08,19,10,53,25.60
2015,08,19,10,54,25.60
2015,08,19,10,55,25.70
2015,08,19,10,56,25.70
2015,08,19,10,57,25.90
2015,08,19,10,58,26.00
2015,08,19,10,59,26.00
2015,08,19,11,00,26.10
2015,08,19,11,01,26.20
2015,08,19,11,02,26.20
2015,08,19,11,03,26.30
2015,08,19,11,04,26.30
2015,08,19,11,05,26.30
2015,08,19,11,06,26.30
2015,08,19,11,07,26.20
2015,08,19,11,08,26.20
2015,08,19,11,09,26.20
2015,08,19,11,10,26.20
2015,08,19,11,11,26.20
2015,08,19,11,12,26.20
2015,08,19,11,13,26.20
2015,08,19,11,14,26.30
2015,08,19,11,15,26.30
2015,08,19,11,16,26.30
2015,08,19,11,17,26.30
2015,08,19,11,18,26.30
2015,08,19,11,19,26.20
2015,08,19,11,20,26.20
2015,08,19,11,21,26.20
2015,08,19,11,22,26.20
2015,08,19,11,23,26.20
2015,08,19,11,24,26.30
2015,08,19,11,25,26.30
2015,08,19,11,26,26.40
2015,08,19,11,27,26.40
2015,08,19,11,28,26.40
2015,08,19,11,29,26.60
2015,08,19,11,30,26.70
2015,08,19,11,31,26.80
2015,08,19,11,32,27.00
2015,08,19,11,33,27.10
2015,08,19,11,34,27.30
2015,08,19,11,35,27.40
2015,08,19,11,36,27.50
2015,08,19,11,37,27.60
2015,08,19,11,38,27.80
2015,08,19,11,39,27.80
2015,08,19,11,40,27.90
2015,08,19,11,41,28.00
2015,08,19,11,42,28.00
2015,08,19,11,43,28.10
2015,08,19,11,44,28.10
2015,08,19,11,45,28.10
2015,08,19,11,46,28.20
2015,08,19,11,47,28.20
2015,08,19,11,48,28.30
2015,08,19,11,49,28.40
2015,08,19,11,50,28.50
2015,08,19,11,51,28.50
2015,08,19,11,52,28.50
2015,08,19,11,53,28.40
2015,08,19,11,54,28.30
2015,08,19,11,55,28.20
2015,08,19,11,56,28.10
2015,08,19,11,57,28.10
2015,08,19,11,58,28.00
2015,08,19,11,59,27.90
2015,08,19,12,00,27.80
2015,08,19,12,01,27.70
2015,08,19,12,02,27.70
2015,08,19,12,03,27.60
2015,08,19,12,04,27.60
2015,08,19,12,05,27.60
2015,08,19,12,06,27.60
2015,08,19,12,07,27.70
2015,08,19,12,08,27.70
2015,08,19,12,09,27.70
2015,08,19,12,10,27.70
2015,08,19,12,11,27.70
2015,08,19,12,12,27.70
2015,08,19,12,13,27.80
2015,08,19,12,14,27.80
2015,08,19,12,15,27.90
2015,08,19,12,16,28.10
2015,08,19,12,17,28.20
2015,08,19,12,18,28.30
2015,08,19,12,19,28.40
2015,08,19,12,20,28.50
2015,08,19,12,21,28.60
2015,08,19,12,22,28.80
2015,08,19,12,23,28.80
2015,08,19,12,24,29.00
2015,08,19,12,25,29.10
2015,08,19,12,26,29.20
2015,08,19,12,27,29.20
2015,08,19,12,28,29.30
2015,08,19,12,29,29.30
2015,08,19,12,30,29.40
2015,08,19,12,31,29.50
2015,08,19,12,32,29.50
2015,08,19,12,33,29.60
2015,08,19,12,34,29.60
2015,08,19,12,35,29.70
2015,08,19,12,36,29.80
2015,08,19,12,37,29.80
2015,08,19,12,38,29.80
2015,08,19,12,39,29.80
2015,08,19,12,40,29.80
2015,08,19,12,41,29.90
2015,08,19,12,42,29.90
2015,08,19,12,43,29.90
2015,08,19,12,44,30.00
2015,08,19,12,45,30.00
2015,08,19,12,46,30.10
2015,08,19,12,47,30.20
2015,08,19,12,48,30.20
2015,08,19,12,49,30.20
2015,08,19,12,50,30.30
2015,08,19,12,51,30.30
2015,08,19,12,52,30.20
2015,08,19,12,53,30.30
2015,08,19,12,54,30.30
2015,08,19,12,55,30.30
2015,08,19,12,56,30.30
2015,08,19,12,57,30.30
2015,08,19,12,58,30.40
2015,08,19,12,59,30.40
2015,08,19,13,00,30.40
2015,08,19,13,01,30.50
2015,08,19,13,02,30.60
2015,08,19,13,03,30.70
2015,08,19,13,04,30.70
2015,08,19,13,05,30.80
2015,08,19,13,06,30.80
2015,08,19,13,07,30.70
2015,08,19,13,08,30.60
2015,08,19,13,09,30.60
2015,08,19,13,10,30.50
2015,08,19,13,11,30.50
2015,08,19,13,12,30.40
2015,08,19,13,13,30.40
2015,08,19,13,14,30.40
2015,08,19,13,15,30.40
2015,08,19,13,16,30.40
2015,08,19,13,17,30.40
2015,08,19,13,18,30.30
2015,08,19,13,19,30.40
2015,08,19,13,20,30.40
2015,08,19,13,21,30.40
2015,08,19,13,22,30.40
2015,08,19,13,23,30.50
2015,08,19,13,24,30.50
2015,08,19,13,25,30.60
2015,08,19,13,26,30.70
2015,08,19,13,27,30.70
2015,08,19,13,28,30.70
2015,08,19,13,29,30.70
2015,08,19,13,30,30.60
2015,08,19,13,31,30.60
2015,08,19,13,32,30.60
2015,08,19,13,33,30.50
2015,08,19,13,34,30.50
2015,08,19,13,35,30.50
2015,08,19,13,36,30.50
2015,08,19,13,37,30.40
2015,08,19,13,38,30.50
2015,08,19,13,39,30.50
2015,08,19,13,40,30.60
2015,08,19,13,41,30.60
2015,08,19,13,42,30.70
2015,08,19,13,43,30.70
2015,08,19,13,44,30.80
2015,08,19,13,45,30.80
2015,08,19,13,46,30.80
2015,08,19,13,47,30.80
2015,08,19,13,48,30.80
2015,08,19,13,49,30.80
2015,08,19,13,50,30.80
2015,08,19,13,51,30.90
2015,08,19,13,52,30.90
2015,08,19,13,53,31.00
2015,08,19,13,54,31.10
2015,08,19,13,55,31.20
2015,08,19,13,56,31.20
2015,08,19,13,57,31.30
2015,08,19,13,58,31.40
2015,08,19,13,59,31.30
2015,08,19,14,00,31.30
2015,08,19,14,01,31.30
2015,08,19,14,02,31.30
2015,08,19,14,03,31.30
2015,08,19,14,04,31.20
2015,08,19,14,05,31.10
2015,08,19,14,06,31.10
2015,08,19,14,07,31.10
2015,08,19,14,08,31.00
2015,08,19,14,09,30.90
2015,08,19,14,10,30.80
2015,08,19,14,11,30.70
2015,08,19,14,12,30.60
2015,08,19,14,13,30.50
2015,08,19,14,14,30.40
2015,08,19,14,15,30.10
2015,08,19,14,16,29.90
2015,08,19,14,17,29.70
2015,08,19,14,18,29.60
2015,08,19,14,19,29.60
2015,08,19,14,20,29.70
2015,08,19,14,21,29.70
2015,08,19,14,22,29.70
2015,08,19,14,23,29.70
2015,08,19,14,24,29.60
2015,08,19,14,25,29.60
2015,08,19,14,26,29.60
2015,08,19,14,27,29.50
2015,08,19,14,28,29.50
2015,08,19,14,29,29.50
2015,08,19,14,30,29.50
2015,08,19,14,31,29.50
2015,08,19,14,32,29.40
2015,08,19,14,33,29.40
2015,08,19,14,34,29.40
2015,08,19,14,35,29.30
2015,08,19,14,36,29.30
2015,08,19,14,37,29.30
2015,08,19,14,38,29.30
2015,08,19,14,39,29.30
2015,08,19,14,40,29.30
2015,08,19,14,41,29.20
2015,08,19,14,42,29.10
2015,08,19,14,43,29.00
2015,08,19,14,44,28.90
2015,08,19,14,45,28.80
2015,08,19,14,46,28.70
2015,08,19,14,47,28.70
2015,08,19,14,48,28.60
2015,08,19,14,49,28.60
2015,08,19,14,50,28.50
2015,08,19,14,51,28.50
2015,08,19,14,52,28.40
2015,08,19,14,53,28.30
2015,08,19,14,54,28.30
2015,08,19,14,55,28.30
2015,08,19,14,56,28.30
2015,08,19,14,57,28.10
2015,08,19,14,58,28.00
2015,08,19,14,59,27.90
2015,08,19,15,00,28.00
2015,08,19,15,01,28.00
2015,08,19,15,02,28.10
2015,08,19,15,03,28.10
2015,08,19,15,04,28.10
2015,08,19,15,05,28.10
2015,08,19,15,06,28.20
2015,08,19,15,07,28.20
2015,08,19,15,08,28.30
2015,08,19,15,09,28.30
2015,08,19,15,10,28.30
2015,08,19,15,11,28.40
2015,08,19,15,12,28.50
2015,08,19,15,13,28.60
2015,08,19,15,14,28.60
2015,08,19,15,15,28.60
2015,08,19,15,16,28.60
2015,08,19,15,17,28.70
2015,08,19,15,18,28.70
2015,08,19,15,19,28.80
2015,08,19,15,20,28.80
2015,08,19,15,21,28.80
2015,08,19,15,22,28.70
2015,08,19,15,23,28.70
2015,08,19,15,24,28.60
2015,08,19,15,25,28.60
2015,08,19,15,26,28.70
2015,08,19,15,27,28.70
2015,08,19,15,28,28.70
2015,08,19,15,29,28.70
2015,08,19,15,30,28.70
2015,08,19,15,31,28.70
2015,08,19,15,32,28.70
2015,08,19,15,33,28.70
2015,08,19,15,34,28.70
2015,08,19,15,35,28.70
2015,08,19,15,36,28.70
2015,08,19,15,37,28.70
2015,08,19,15,38,28.70
2015,08,19,15,39,28.70
2015,08,19,15,40,28.80
2015,08,19,15,41,28.80
2015,08,19,15,42,28.80
2015,08,19,15,43,28.90
2015,08,19,15,44,28.90
2015,08,19,15,45,28.90
2015,08,19,15,46,28.80
2015,08,19,15,47,28.80
2015,08,19,15,48,28.80
2015,08,19,15,49,28.80
2015,08,19,15,50,28.80
2015,08,19,15,51,28.80
2015,08,19,15,52,28.80
2015,08,19,15,53,28.80
2015,08,19,15,54,28.80
2015,08,19,15,55,28.70
2015,08,19,15,56,28.70
2015,08,19,15,57,28.60
2015,08,19,15,58,28.60
2015,08,19,15,59,28.60
2015,08,19,16,00,28.60
2015,08,19,16,01,28.60
2015,08,19,16,02,28.70
2015,08,19,16,03,28.70
2015,08,19,16,04,28.70
2015,08,19,16,05,28.60
2015,08,19,16,06,28.50
2015,08,19,16,07,28.50
2015,08,19,16,08,28.40
2015,08,19,16,09,28.50
2015,08,19,16,10,28.60
2015,08,19,16,11,28.60
2015,08,19,16,12,28.50
2015,08,19,16,13,28.50
2015,08,19,16,14,28.50
2015,08,19,16,15,28.50
2015,08,19,16,16,28.50
2015,08,19,16,17,28.50
2015,08,19,16,18,28.40
2015,08,19,16,19,28.40
2015,08,19,16,20,28.40
2015,08,19,16,21,28.40
2015,08,19,16,22,28.40
2015,08,19,16,23,28.40
2015,08,19,16,24,28.40
2015,08,19,16,25,28.40
2015,08,19,16,26,28.40
2015,08,19,16,27,28.40
2015,08,19,16,28,28.40
2015,08,19,16,29,28.30
2015,08,19,16,30,28.30
2015,08,19,16,31,28.30
2015,08,19,16,32,28.30
2015,08,19,16,33,28.30
2015,08,19,16,34,28.30
2015,08,19,16,35,28.30
2015,08,19,16,36,28.20
2015,08,19,16,37,28.20
2015,08,19,16,38,28.20
2015,08,19,16,39,28.20
2015,08,19,16,40,28.10
2015,08,19,16,41,28.00
2015,08,19,16,42,28.00
2015,08,19,16,43,28.00
2015,08,19,16,44,27.90
2015,08,19,16,45,27.90
2015,08,19,16,46,27.90
2015,08,19,16,47,27.90
2015,08,19,16,48,28.00
2015,08,19,16,49,28.00
2015,08,19,16,50,28.10
2015,08,19,16,51,28.10
2015,08,19,16,52,28.10
2015,08,19,16,53,28.10
2015,08,19,16,54,28.10
2015,08,19,16,55,28.00
2015,08,19,16,56,27.90
2015,08,19,16,57,27.90
2015,08,19,16,58,28.00
2015,08,19,16,59,28.00
2015,08,19,17,00,28.00
2015,08,19,17,01,28.00
2015,08,19,17,02,27.90
2015,08,19,17,03,27.90
2015,08,19,17,04,27.90
2015,08,19,17,05,27.90
2015,08,19,17,06,27.80
2015,08,19,17,07,27.80
2015,08,19,17,08,27.80
2015,08,19,17,09,27.80
2015,08,19,17,10,27.90
2015,08,19,17,11,27.90
2015,08,19,17,12,28.00
2015,08,19,17,13,28.00
2015,08,19,17,14,28.00
2015,08,19,17,15,28.00
2015,08,19,17,16,28.00
2015,08,19,17,17,27.90
2015,08,19,17,18,27.90
2015,08,19,17,19,27.90